Tracking 20724 objects as of 2-Jun-2020
HD Live streaming from Space Station
objects crossing your sky now

SL-14 R/B

Track SL-14 R/B now!
10-day predictions


NORAD ID: 18215
Int'l Code: 1987-062B
Perigee: 611.6 km
Apogee: 641.0 km
Inclination: 82.5 °
Period: 97.1 minutes
Semi major axis: 6997 km
RCS: 4.3492 m2 (large)
Launch date: July 16, 1987
Source: Commonwealth of Independent States (former USSR) (CIS)
Launch site: PLESETSK MISSILE AND SPACE COMPLEX (PKMTR)

Note: This is a ROCKET BODY
aabbcc
Your satellite tracking list
Your tracking list is empty




NASA's NSSDC Master Catalog

Two Line Element Set (TLE):
1 18215U 87062B   20153.65734743  .00000082  00000-0  70034-5 0  9999
2 18215  82.5118 350.8747 0020967 161.1750 264.5271 14.83219638776128
Source of the keplerian elements: AFSPC